Winona, MN

3:39 PM CDT on March 23, 2017 (GMT -0500)
Winona Municipal-Conrad

Weather History for KONA - October, 2013

Change the Weather History Date:

Friday, October 4, 2013

  Actual Average Record
Temperature  
Mean Temperature 58 °F -  
Max Temperature 60 °F 69 °F 87 °F (2005)
Min Temperature 55 °F 47 °F 28 °F (1999)
Degree Days  
Heating Degree Days 8    
Growing Degree Days 8 (Base 50)    
Moisture  
Dew Point 58 °F    
Average Humidity 95    
Maximum Humidity 100    
Minimum Humidity 88    
Precipitation  
Precipitation 0.00 in - - ()
Sea Level Pressure  
Sea Level Pressure 29.92 in    
Wind  
Wind Speed 4 mph (East)    
Max Wind Speed 16 mph    
Max Gust Speed 23 mph    
Visibility 7 miles    
Events Rain , Thunderstorm    
Averages and records for this station are not official NWS values.
T = Trace of Precipitation, MM = Missing Value Source: NWS Daily Summary

Daily Weather History Graph

Daily Weather History Graph

Search for Another Location

Airport or City:

Trip Planner

Search our weather history database for the weather conditions in past years. The results will help you decide how hot, cold, wet, or windy it might be!

Date:

Astronomy

Oct. 04, 2013 Rise Set
Actual Time 7:08 AM CDT 6:41 PM CDT
Civil Twilight 6:39 AM CDT 7:10 PM CDT
Nautical Twilight 6:06 AM CDT 7:43 PM CDT
Astronomical Twilight 5:32 AM CDT 8:17 PM CDT
Moon 6:44 AM CDT (10/4) 6:23 PM CDT (10/4)
Length of Visible Light 12h 30m
Length of Day
11h 33m
Waning Crescent, 0% of the Moon is Illuminated
Oct 4
Waning Crescent
Oct 4
New
Oct 11
First Quarter
Oct 18
Full
Oct 26
Last Quarter

Hourly Weather History & Observations

Time (CDT) Temp. Dew Point Humidity Pressure Visibility Wind Dir Wind Speed Gust Speed Precip Events Conditions
12:17 AM 60.8 °F 60.8 °F 100% 29.88 in 7.0 mi Calm Calm - N/A   Overcast
12:36 AM 60.8 °F 60.8 °F 100% 29.88 in 3.0 mi Calm Calm - N/A   Overcast
12:56 AM 60.8 °F 60.8 °F 100% 29.87 in 5.0 mi Calm Calm - N/A   Overcast
1:17 AM 60.8 °F 60.8 °F 100% 29.88 in 5.0 mi Calm Calm - N/A   Overcast
1:36 AM 60.8 °F 60.8 °F 100% 29.88 in 4.0 mi Calm Calm - N/A   Overcast
1:56 AM 60.8 °F 60.8 °F 100% 29.89 in 2.5 mi North 3.5 mph - N/A   Overcast
2:16 AM 60.8 °F 60.8 °F 100% 29.89 in 1.5 mi Calm Calm - N/A   Overcast
2:36 AM 60.8 °F 60.8 °F 100% 29.90 in 1.2 mi Calm Calm - N/A   Overcast
2:56 AM 60.8 °F 60.8 °F 100% 29.89 in 1.8 mi Calm Calm - N/A   Overcast
3:16 AM 60.8 °F 59.0 °F 94% 29.89 in 4.0 mi North 4.6 mph - N/A   Overcast
3:36 AM 60.8 °F 59.0 °F 94% 29.91 in 5.0 mi East 3.5 mph - N/A   Overcast
3:56 AM 60.8 °F 59.0 °F 94% 29.91 in 4.0 mi NNE 4.6 mph - N/A   Overcast
4:16 AM 59.0 °F 59.0 °F 100% 29.91 in 4.0 mi ENE 4.6 mph - N/A   Overcast
4:36 AM 59.0 °F 59.0 °F 100% 29.92 in 4.0 mi East 3.5 mph - N/A   Overcast
4:57 AM 59.0 °F 59.0 °F 100% 29.92 in 4.0 mi NE 5.8 mph - N/A   Overcast
5:16 AM 59.0 °F 59.0 °F 100% 29.92 in 4.0 mi ENE 4.6 mph - N/A   Overcast
5:36 AM 57.2 °F 55.4 °F 94% 29.92 in 4.0 mi ENE 5.8 mph - N/A   Overcast
5:56 AM 57.2 °F 55.4 °F 94% 29.93 in 5.0 mi ENE 3.5 mph - N/A   Overcast
6:16 AM 57.2 °F 55.4 °F 94% 29.93 in 5.0 mi NE 5.8 mph - N/A   Overcast
6:37 AM 55.4 °F 55.4 °F 100% 29.94 in 5.0 mi ENE 4.6 mph - N/A   Overcast
6:56 AM 57.2 °F 55.4 °F 94% 29.97 in 5.0 mi Calm Calm - N/A Rain Light Rain
7:16 AM 57.2 °F 55.4 °F 94% 29.95 in 2.5 mi East 3.5 mph - N/A Rain Heavy Rain
7:37 AM 57.2 °F 55.4 °F 94% 29.94 in 4.0 mi NNE 3.5 mph - N/A Rain Light Rain
7:56 AM 57.2 °F 55.4 °F 94% 29.93 in 4.0 mi North 3.5 mph - N/A   Light Drizzle
8:16 AM 57.2 °F 55.4 °F 94% 29.93 in 7.0 mi East 3.5 mph - N/A   Overcast
8:37 AM 59.0 °F 57.2 °F 94% 29.94 in 10.0 mi Calm Calm - N/A   Overcast
8:56 AM 59.0 °F 57.2 °F 94% 29.93 in 10.0 mi ENE 3.5 mph - N/A   Overcast
9:16 AM 59.0 °F 57.2 °F 94% 29.94 in 10.0 mi ENE 4.6 mph - N/A   Overcast
9:37 AM 59.0 °F 57.2 °F 94% 29.94 in 10.0 mi East 5.8 mph - N/A   Overcast
9:56 AM 59.0 °F 57.2 °F 94% 29.94 in 10.0 mi ESE 9.2 mph - N/A   Overcast
10:16 AM 59.0 °F 57.2 °F 94% 29.94 in 10.0 mi ESE 9.2 mph - N/A   Overcast
10:36 AM 59.0 °F 57.2 °F 94% 29.93 in 10.0 mi ESE 4.6 mph - N/A   Overcast
10:56 AM 59.0 °F 55.4 °F 88% 29.94 in 10.0 mi ESE 4.6 mph - N/A   Overcast
11:17 AM 59.0 °F 55.4 °F 88% 29.96 in 10.0 mi Calm Calm - N/A   Overcast
11:36 AM 59.0 °F 55.4 °F 88% 29.97 in 10.0 mi SE 5.8 mph - N/A   Overcast
11:56 AM 59.0 °F 55.4 °F 88% 29.97 in 10.0 mi Calm Calm - N/A   Overcast
12:16 PM 59.0 °F 57.2 °F 94% 29.98 in 10.0 mi Calm Calm - N/A   Overcast
12:36 PM 60.8 °F 57.2 °F 88% 29.97 in 10.0 mi ESE 8.1 mph - N/A   Overcast
12:56 PM 60.8 °F 57.2 °F 88% 29.97 in 10.0 mi SE 8.1 mph - N/A   Overcast
1:16 PM 60.8 °F 57.2 °F 88% 29.97 in 10.0 mi ESE 5.8 mph - N/A   Overcast
1:36 PM 60.8 °F 57.2 °F 88% 29.94 in 10.0 mi East 8.1 mph - N/A   Overcast
1:56 PM 60.8 °F 57.2 °F 88% 29.94 in 10.0 mi East 6.9 mph - N/A   Overcast
2:16 PM 60.8 °F 59.0 °F 94% 29.93 in 10.0 mi ENE 4.6 mph - N/A   Overcast
2:37 PM 60.8 °F 59.0 °F 94% 29.93 in 10.0 mi East 5.8 mph - N/A   Overcast
2:56 PM 60.8 °F 59.0 °F 94% 29.93 in 10.0 mi ENE 4.6 mph - N/A   Overcast
3:16 PM 60.8 °F 59.0 °F 94% 29.94 in 10.0 mi ESE 5.8 mph - N/A   Overcast
3:37 PM 60.8 °F 59.0 °F 94% 29.92 in 10.0 mi East 8.1 mph - N/A   Overcast
3:56 PM 60.8 °F 59.0 °F 94% 29.92 in 10.0 mi East 4.6 mph - N/A   Overcast
4:16 PM 60.8 °F 59.0 °F 94% 29.92 in 10.0 mi East 5.8 mph - N/A   Overcast
4:36 PM 60.8 °F 59.0 °F 94% 29.93 in 10.0 mi SE 6.9 mph - N/A   Overcast
4:56 PM 60.8 °F 59.0 °F 94% 29.94 in 10.0 mi East 4.6 mph - N/A   Overcast
5:16 PM 60.8 °F 59.0 °F 94% 29.93 in 10.0 mi East 6.9 mph - N/A   Overcast
5:37 PM 60.8 °F 59.0 °F 94% 29.92 in 10.0 mi East 5.8 mph - N/A   Overcast
5:56 PM 60.8 °F 59.0 °F 94% 29.90 in 10.0 mi East 5.8 mph - N/A   Overcast
6:16 PM 60.8 °F 59.0 °F 94% 29.90 in 10.0 mi East 6.9 mph - N/A   Overcast
6:37 PM 60.8 °F 59.0 °F 94% 29.90 in 10.0 mi ESE 8.1 mph - N/A   Overcast
6:56 PM 60.8 °F 59.0 °F 94% 29.91 in 5.0 mi ESE 10.4 mph - N/A   Overcast
7:16 PM 60.8 °F 59.0 °F 94% 29.91 in 5.0 mi ESE 10.4 mph - N/A   Overcast
7:37 PM 60.8 °F 59.0 °F 94% 29.92 in 7.0 mi ESE 9.2 mph - N/A   Overcast
7:56 PM 59.0 °F 59.0 °F 100% 29.94 in 7.0 mi ESE 10.4 mph - N/A Rain Light Rain
8:16 PM 59.0 °F 57.2 °F 94% 29.93 in 5.0 mi ESE 8.1 mph - N/A Rain , Thunderstorm Rain
8:36 PM 59.0 °F 57.2 °F 94% 29.90 in 5.0 mi East 8.1 mph 17.3 mph N/A Rain Rain
8:56 PM 59.0 °F 57.2 °F 94% 29.92 in 10.0 mi East 6.9 mph - N/A Rain , Thunderstorm Light Thunderstorms and Rain
9:16 PM 59.0 °F 57.2 °F 94% 29.92 in 7.0 mi ESE 9.2 mph - N/A Rain , Thunderstorm Rain
9:36 PM 59.0 °F 57.2 °F 94% 29.91 in 7.0 mi ESE 8.1 mph - N/A Rain , Thunderstorm Thunderstorms and Rain
9:56 PM 59.0 °F 57.2 °F 94% 29.92 in 5.0 mi SE 11.5 mph - N/A Rain , Thunderstorm Thunderstorms and Rain
10:16 PM 59.0 °F 57.2 °F 94% 29.91 in 7.0 mi SE 12.7 mph 17.3 mph N/A Rain , Thunderstorm Rain
10:36 PM 59.0 °F 59.0 °F 100% 29.88 in 10.0 mi ESE 15.0 mph 20.7 mph N/A Rain , Thunderstorm Light Thunderstorms and Rain
10:56 PM 60.8 °F 59.0 °F 94% 29.88 in 10.0 mi SE 16.1 mph 23.0 mph N/A Rain , Thunderstorm Light Thunderstorms and Rain
11:16 PM 60.8 °F 59.0 °F 94% 29.87 in 10.0 mi SE 12.7 mph 17.3 mph N/A Thunderstorm Overcast
11:36 PM 60.8 °F 59.0 °F 94% 29.85 in 7.0 mi SE 10.4 mph 21.9 mph N/A Rain , Thunderstorm Light Thunderstorms and Rain
11:56 PM 60.8 °F 59.0 °F 94% 29.86 in 10.0 mi ESE 16.1 mph - N/A Thunderstorm Overcast